Location: Bellflower
(33.8817°N, 118.1170°W)
Time: 12:16:00
(UTC+00:00)

SL-16 R/B - Pass Details

Date: 23 November 2020
Orbit: 841 x 849 km, 71.0° (Epoch: 21 January)

Event Time Altitude Azimuth Distance (km) Brightness Sun altitude
Exits shadow 12:28:34 51° 340° (NNW) 1,057 2.4 -25.5°
Maximum altitude 12:30:06 90° 60° (ENE) 848 2.1 -25.2°
Drops below altitude 10° 12:35:45 10° 161° (SSE) 2,456 4.9 -24.0°
Sets 12:38:11 0° 161° (SSE) 3,389 5.7 -23.5°
